Time,TemperatureF,DewpointF,PressureIn,WindDirection,WindDirectionDegrees,WindSpeedMPH,WindSpeedGustMPH,Humidity,HourlyPrecipIn,Conditions,Clouds,dailyrainin,SoftwareType,DateUTC
2013-03-12 00:02:00,59.0,39.0,30.09,West,270,0.0,-999.0,47,-99.99,,,-99.99,,2013-03-12 07:02:00,
2013-03-12 00:32:00,57.0,39.0,30.09,West,270,0.0,-999.0,50,-99.99,,,-99.99,,2013-03-12 07:32:00,
2013-03-12 00:41:00,57.0,39.0,30.09,West,270,0.0,-999.0,50,-99.99,,,-99.99,,2013-03-12 07:41:00,
2013-03-12 00:52:00,57.0,39.0,30.09,West,270,0.0,-999.0,50,-99.99,,,-99.99,,2013-03-12 07:52:00,
2013-03-12 01:02:00,57.0,38.0,30.10,West,271,1.0,-999.0,48,-99.99,,,-99.99,,2013-03-12 08:02:00,
2013-03-12 01:22:00,58.0,36.0,30.10,West,271,0.0,-999.0,44,-99.99,,,-99.99,,2013-03-12 08:22:00,
2013-03-12 01:32:00,59.0,37.0,30.10,West,270,0.0,-999.0,44,-99.99,,,-99.99,,2013-03-12 08:32:00,
2013-03-12 01:52:00,59.0,37.0,30.10,West,271,0.0,-999.0,44,-99.99,,,-99.99,,2013-03-12 08:52:00,
2013-03-12 02:02:00,59.0,34.0,30.10,West,271,1.0,-999.0,39,-99.99,,,-99.99,,2013-03-12 09:02:00,
2013-03-12 02:22:00,60.0,35.0,30.10,West,271,0.0,-999.0,39,-99.99,,,-99.99,,2013-03-12 09:22:00,
2013-03-12 02:32:00,58.0,35.0,30.10,West,271,0.0,-999.0,42,-99.99,,,-99.99,,2013-03-12 09:32:00,
2013-03-12 02:52:00,58.0,36.0,30.10,West,271,0.0,-999.0,43,-99.99,,,-99.99,,2013-03-12 09:52:00,
2013-03-12 03:01:00,58.0,36.0,30.09,West,271,0.0,-999.0,43,-99.99,,,-99.99,,2013-03-12 10:01:00,
2013-03-12 03:22:00,57.0,36.0,30.09,West,271,0.0,-999.0,45,-99.99,,,-99.99,,2013-03-12 10:22:00,
2013-03-12 03:32:00,57.0,36.0,30.09,West,271,0.0,-999.0,45,-99.99,,,-99.99,,2013-03-12 10:32:00,
2013-03-12 03:41:00,57.0,36.0,30.09,West,271,0.0,-999.0,45,-99.99,,,-99.99,,2013-03-12 10:41:00,
2013-03-12 03:52:00,57.0,36.0,30.09,West,270,0.0,-999.0,46,-99.99,,,-99.99,,2013-03-12 10:52:00,
2013-03-12 04:01:00,56.0,36.0,30.08,West,271,0.0,-999.0,46,-99.99,,,-99.99,,2013-03-12 11:01:00,
2013-03-12 04:22:00,57.0,36.0,30.07,West,271,0.0,-999.0,45,-99.99,,,-99.99,,2013-03-12 11:22:00,
2013-03-12 04:31:00,57.0,36.0,30.07,West,271,0.0,-999.0,45,-99.99,,,-99.99,,2013-03-12 11:31:00,
2013-03-12 04:52:00,57.0,36.0,30.07,West,271,0.0,-999.0,45,-99.99,,,-99.99,,2013-03-12 11:52:00,
2013-03-12 05:02:00,57.0,35.0,30.07,West,271,0.0,-999.0,44,-99.99,,,-99.99,,2013-03-12 12:02:00,
2013-03-12 05:22:00,57.0,35.0,30.07,West,271,0.0,-999.0,44,-99.99,,,-99.99,,2013-03-12 12:22:00,
2013-03-12 05:31:00,57.0,34.0,30.07,West,271,1.0,-999.0,42,-99.99,,,-99.99,,2013-03-12 12:31:00,
2013-03-12 05:52:00,59.0,35.0,30.07,West,271,0.0,-999.0,40,-99.99,,,-99.99,,2013-03-12 12:52:00,
2013-03-12 06:01:00,59.0,35.0,30.06,West,271,0.0,-999.0,41,-99.99,,,-99.99,,2013-03-12 13:01:00,
2013-03-12 06:21:00,58.0,35.0,30.06,West,271,0.0,-999.0,42,-99.99,,,-99.99,,2013-03-12 13:21:00,
2013-03-12 06:32:00,57.0,35.0,30.06,West,271,0.0,-999.0,43,-99.99,,,-99.99,,2013-03-12 13:32:00,
2013-03-12 06:52:00,57.0,35.0,30.07,West,271,1.0,-999.0,43,-99.99,,,-99.99,,2013-03-12 13:52:00,
2013-03-12 07:01:00,57.0,35.0,30.07,West,271,0.0,-999.0,44,-99.99,,,-99.99,,2013-03-12 14:01:00,
2013-03-12 07:21:00,58.0,36.0,30.07,West,271,0.0,-999.0,43,-99.99,,,-99.99,,2013-03-12 14:21:00,
2013-03-12 07:32:00,58.0,36.0,30.07,West,271,0.0,-999.0,43,-99.99,,,-99.99,,2013-03-12 14:32:00,
2013-03-12 07:53:00,58.0,36.0,30.07,West,271,0.0,-999.0,44,-99.99,,,-99.99,,2013-03-12 14:53:00,
2013-03-12 08:01:00,57.0,36.0,30.08,West,270,0.0,-999.0,46,-99.99,,,-99.99,,2013-03-12 15:01:00,
2013-03-12 08:22:00,57.0,37.0,30.08,West,271,0.0,-999.0,47,-99.99,,,-99.99,,2013-03-12 15:22:00,
2013-03-12 08:31:00,57.0,38.0,30.09,West,270,1.0,-999.0,48,-99.99,,,-99.99,,2013-03-12 15:31:00,
2013-03-12 08:53:00,58.0,41.0,30.09,West,270,0.0,-999.0,54,-99.99,,,-99.99,,2013-03-12 15:53:00,
2013-03-12 09:01:00,59.0,42.0,30.09,West,270,0.0,-999.0,54,-99.99,,,-99.99,,2013-03-12 16:01:00,
2013-03-12 09:22:00,58.0,40.0,30.10,West,270,0.0,-999.0,52,-99.99,,,-99.99,,2013-03-12 16:22:00,
2013-03-12 09:32:00,59.0,44.0,30.10,West,271,0.0,-999.0,57,-99.99,,,-99.99,,2013-03-12 16:32:00,
2013-03-12 09:52:00,58.0,43.0,30.10,West,271,0.0,-999.0,57,-99.99,,,-99.99,,2013-03-12 16:52:00,
2013-03-12 10:02:00,58.0,47.0,30.10,West,270,0.0,-999.0,66,-99.99,,,-99.99,,2013-03-12 17:02:00,
2013-03-12 10:12:00,58.0,47.0,30.10,West,270,0.0,-999.0,66,-99.99,,,-99.99,,2013-03-12 17:12:00,
2013-03-12 10:22:00,58.0,48.0,30.10,West,269,1.0,-999.0,70,-99.99,,,-99.99,,2013-03-12 17:22:00,
2013-03-12 10:33:00,58.0,47.0,30.09,West,267,1.0,-999.0,68,-99.99,,,-99.99,,2013-03-12 17:33:00,
2013-03-12 10:42:00,58.0,47.0,30.09,West,267,1.0,-999.0,68,-99.99,,,-99.99,,2013-03-12 17:42:00,
2013-03-12 10:53:00,58.0,47.0,30.10,West,266,0.0,-999.0,68,-99.99,,,-99.99,,2013-03-12 17:53:00,
2013-03-12 11:02:00,58.0,50.0,30.10,SW,231,0.0,-999.0,74,-99.99,,,-99.99,,2013-03-12 18:02:00,
2013-03-12 11:12:00,59.0,51.0,30.11,SW,229,0.0,-999.0,74,-99.99,,,-99.99,,2013-03-12 18:12:00,
2013-03-12 11:22:00,59.0,51.0,30.11,SW,229,0.0,-999.0,74,-99.99,,,-99.99,,2013-03-12 18:22:00,
2013-03-12 11:32:00,61.0,52.0,30.11,SW,229,0.0,-999.0,72,-99.99,,,-99.99,,2013-03-12 18:32:00,
2013-03-12 11:42:00,61.0,52.0,30.11,SW,229,0.0,-999.0,72,-99.99,,,-99.99,,2013-03-12 18:42:00,
2013-03-12 11:53:00,60.0,50.0,30.11,SW,229,1.0,-999.0,70,-99.99,,,-99.99,,2013-03-12 18:53:00,
2013-03-12 12:02:00,60.0,48.0,30.11,SW,229,0.0,-999.0,64,-99.99,,,-99.99,,2013-03-12 19:02:00,
2013-03-12 12:12:00,60.0,48.0,30.11,SW,229,0.0,-999.0,64,-99.99,,,-99.99,,2013-03-12 19:12:00,
2013-03-12 12:22:00,61.0,50.0,30.10,SW,229,0.0,-999.0,68,-99.99,,,-99.99,,2013-03-12 19:22:00,
2013-03-12 12:32:00,62.0,51.0,30.10,SW,224,0.0,-999.0,67,-99.99,,,-99.99,,2013-03-12 19:32:00,
2013-03-12 12:43:00,62.0,51.0,30.10,SW,224,0.0,-999.0,67,-99.99,,,-99.99,,2013-03-12 19:43:00,
2013-03-12 12:53:00,62.0,49.0,30.10,SW,224,1.0,-999.0,63,-99.99,,,-99.99,,2013-03-12 19:53:00,
2013-03-12 13:01:00,63.0,49.0,30.09,SW,223,1.0,-999.0,60,-99.99,,,-99.99,,2013-03-12 20:01:00,
2013-03-12 13:11:00,63.0,49.0,30.09,SW,223,1.0,-999.0,60,-99.99,,,-99.99,,2013-03-12 20:11:00,
2013-03-12 13:22:00,61.0,51.0,30.09,SW,222,1.0,-999.0,69,-99.99,,,-99.99,,2013-03-12 20:22:00,
2013-03-12 13:32:00,63.0,52.0,30.08,SW,221,0.0,-999.0,67,-99.99,,,-99.99,,2013-03-12 20:32:00,
2013-03-12 13:42:00,63.0,52.0,30.08,SW,221,0.0,-999.0,67,-99.99,,,-99.99,,2013-03-12 20:42:00,
2013-03-12 13:53:00,64.0,52.0,30.08,SW,220,0.0,-999.0,64,-99.99,,,-99.99,,2013-03-12 20:53:00,
2013-03-12 14:02:00,60.0,51.0,30.08,SW,218,1.0,-999.0,71,-99.99,,,-99.99,,2013-03-12 21:02:00,
2013-03-12 14:11:00,60.0,51.0,30.08,SW,218,1.0,-999.0,71,-99.99,,,-99.99,,2013-03-12 21:11:00,
2013-03-12 14:22:00,60.0,50.0,30.08,SW,217,1.0,-999.0,69,-99.99,,,-99.99,,2013-03-12 21:22:00,
2013-03-12 14:32:00,61.0,51.0,30.07,SSW,209,0.0,-999.0,69,-99.99,,,-99.99,,2013-03-12 21:32:00,
2013-03-12 14:42:00,61.0,51.0,30.07,SSW,209,0.0,-999.0,69,-99.99,,,-99.99,,2013-03-12 21:42:00,
2013-03-12 14:52:00,61.0,50.0,30.07,SSW,209,1.0,-999.0,68,-99.99,,,-99.99,,2013-03-12 21:52:00,
2013-03-12 15:01:00,60.0,50.0,30.06,SSW,208,1.0,-999.0,69,-99.99,,,-99.99,,2013-03-12 22:01:00,
2013-03-12 15:12:00,60.0,50.0,30.06,SSW,208,1.0,-999.0,69,-99.99,,,-99.99,,2013-03-12 22:12:00,
2013-03-12 15:22:00,60.0,51.0,30.06,SSW,208,1.0,-999.0,72,-99.99,,,-99.99,,2013-03-12 22:22:00,
2013-03-12 15:32:00,60.0,51.0,30.06,SSW,207,1.0,-999.0,71,-99.99,,,-99.99,,2013-03-12 22:32:00,
2013-03-12 15:42:00,60.0,51.0,30.06,SSW,207,1.0,-999.0,71,-99.99,,,-99.99,,2013-03-12 22:42:00,
2013-03-12 15:53:00,60.0,51.0,30.06,SSW,207,1.0,-999.0,71,-99.99,,,-99.99,,2013-03-12 22:53:00,
2013-03-12 16:02:00,60.0,51.0,30.06,SSW,207,1.0,-999.0,71,-99.99,,,-99.99,,2013-03-12 23:02:00,
2013-03-12 16:11:00,60.0,51.0,30.06,SSW,207,1.0,-999.0,71,-99.99,,,-99.99,,2013-03-12 23:11:00,
2013-03-12 16:22:00,61.0,52.0,30.06,SSW,207,1.0,-999.0,71,-99.99,,,-99.99,,2013-03-12 23:22:00,
2013-03-12 16:33:00,62.0,51.0,30.06,SSW,206,2.0,-999.0,66,-99.99,,,-99.99,,2013-03-12 23:33:00,
2013-03-12 16:42:00,62.0,51.0,30.06,SSW,206,2.0,-999.0,66,-99.99,,,-99.99,,2013-03-12 23:42:00,
2013-03-12 16:52:00,62.0,51.0,30.06,SSW,206,2.0,-999.0,66,-99.99,,,-99.99,,2013-03-12 23:52:00,
2013-03-12 17:02:00,63.0,51.0,30.05,SSW,205,0.0,-999.0,64,-99.99,,,-99.99,,2013-03-13 00:02:00,
2013-03-12 17:11:00,63.0,51.0,30.05,SSW,205,0.0,-999.0,64,-99.99,,,-99.99,,2013-03-13 00:11:00,
2013-03-12 17:22:00,63.0,49.0,30.05,SSW,205,0.0,-999.0,60,-99.99,,,-99.99,,2013-03-13 00:22:00,
2013-03-12 17:32:00,63.0,48.0,30.05,SSW,206,1.0,-999.0,59,-99.99,,,-99.99,,2013-03-13 00:32:00,
2013-03-12 17:41:00,63.0,48.0,30.05,SSW,206,1.0,-999.0,59,-99.99,,,-99.99,,2013-03-13 00:41:00,
2013-03-12 17:53:00,64.0,47.0,30.04,SSW,206,1.0,-999.0,55,-99.99,,,-99.99,,2013-03-13 00:53:00,
2013-03-12 18:02:00,63.0,48.0,30.04,SSW,206,2.0,-999.0,58,-99.99,,,-99.99,,2013-03-13 01:02:00,
2013-03-12 18:12:00,63.0,48.0,30.04,SSW,206,2.0,-999.0,58,-99.99,,,-99.99,,2013-03-13 01:12:00,
2013-03-12 18:21:00,62.0,49.0,30.04,SSW,206,1.0,-999.0,63,-99.99,,,-99.99,,2013-03-13 01:21:00,
2013-03-12 18:31:00,62.0,47.0,30.04,SSW,206,0.0,-999.0,58,-99.99,,,-99.99,,2013-03-13 01:31:00,
2013-03-12 18:42:00,62.0,47.0,30.04,SSW,206,0.0,-999.0,58,-99.99,,,-99.99,,2013-03-13 01:42:00,
2013-03-12 18:52:00,63.0,50.0,30.05,SSW,206,1.0,-999.0,63,-99.99,,,-99.99,,2013-03-13 01:52:00,
2013-03-12 19:02:00,63.0,47.0,30.04,SSW,206,0.0,-999.0,56,-99.99,,,-99.99,,2013-03-13 02:02:00,
2013-03-12 19:11:00,63.0,47.0,30.04,SSW,206,0.0,-999.0,56,-99.99,,,-99.99,,2013-03-13 02:11:00,
2013-03-12 19:21:00,62.0,47.0,30.05,SSW,206,0.0,-999.0,59,-99.99,,,-99.99,,2013-03-13 02:21:00,
2013-03-12 19:31:00,62.0,49.0,30.05,WNW,300,0.0,-999.0,62,-99.99,,,-99.99,,2013-03-13 02:31:00,
2013-03-12 19:42:00,62.0,49.0,30.05,WNW,300,0.0,-999.0,62,-99.99,,,-99.99,,2013-03-13 02:42:00,
2013-03-12 19:52:00,61.0,47.0,30.05,WNW,300,0.0,-999.0,59,-99.99,,,-99.99,,2013-03-13 02:52:00,
2013-03-12 20:01:00,62.0,47.0,30.05,WNW,300,0.0,-999.0,59,-99.99,,,-99.99,,2013-03-13 03:01:00,
2013-03-12 20:12:00,62.0,47.0,30.05,WNW,300,0.0,-999.0,59,-99.99,,,-99.99,,2013-03-13 03:12:00,
2013-03-12 20:22:00,62.0,46.0,30.06,WNW,300,0.0,-999.0,55,-99.99,,,-99.99,,2013-03-13 03:22:00,
2013-03-12 20:31:00,61.0,47.0,30.06,WNW,300,0.0,-999.0,60,-99.99,,,-99.99,,2013-03-13 03:31:00,
2013-03-12 20:42:00,61.0,47.0,30.06,WNW,300,0.0,-999.0,60,-99.99,,,-99.99,,2013-03-13 03:42:00,
2013-03-12 20:52:00,61.0,46.0,30.06,WNW,300,0.0,-999.0,57,-99.99,,,-99.99,,2013-03-13 03:52:00,
2013-03-12 21:02:00,61.0,46.0,30.06,WNW,300,0.0,-999.0,57,-99.99,,,-99.99,,2013-03-13 04:02:00,
2013-03-12 21:22:00,62.0,44.0,30.07,WNW,300,0.0,-999.0,52,-99.99,,,-99.99,,2013-03-13 04:22:00,
2013-03-12 21:31:00,62.0,42.0,30.07,WNW,300,0.0,-999.0,48,-99.99,,,-99.99,,2013-03-13 04:31:00,
2013-03-12 21:53:00,63.0,42.0,30.07,WNW,300,0.0,-999.0,46,-99.99,,,-99.99,,2013-03-13 04:53:00,
2013-03-12 22:01:00,63.0,44.0,30.09,WNW,300,0.0,-999.0,49,-99.99,,,-99.99,,2013-03-13 05:01:00,
2013-03-12 22:22:00,61.0,45.0,30.08,WNW,300,0.0,-999.0,55,-99.99,,,-99.99,,2013-03-13 05:22:00,
2013-03-12 22:31:00,58.0,44.0,30.08,WNW,300,0.0,-999.0,60,-99.99,,,-99.99,,2013-03-13 05:31:00,
2013-03-12 22:42:00,58.0,44.0,30.08,WNW,300,0.0,-999.0,60,-99.99,,,-99.99,,2013-03-13 05:42:00,
2013-03-12 22:52:00,58.0,44.0,30.08,WNW,300,0.0,-999.0,59,-99.99,,,-99.99,,2013-03-13 05:52:00,
2013-03-12 23:01:00,57.0,46.0,30.08,WNW,300,0.0,-999.0,66,-99.99,,,-99.99,,2013-03-13 06:01:00,
2013-03-12 23:22:00,56.0,45.0,30.09,WNW,300,0.0,-999.0,66,-99.99,,,-99.99,,2013-03-13 06:22:00,
2013-03-12 23:31:00,58.0,44.0,30.08,WNW,300,1.0,-999.0,59,-99.99,,,-99.99,,2013-03-13 06:31:00,
2013-03-12 23:42:00,58.0,44.0,30.08,WNW,300,1.0,-999.0,59,-99.99,,,-99.99,,2013-03-13 06:42:00,
2013-03-12 23:52:00,60.0,42.0,30.08,WNW,300,0.0,-999.0,51,-99.99,,,-99.99,,2013-03-13 06:52:00,